Regional Weather Roundup
Issued by NWS Jackson, KY

Home | Current Version | Previous Version | Text Only | Print | Product List | Glossary Off
Versions: 1 2 3 4 5 6 7 8 9 10 11 12 13 14 15 16 17 18 19 20 21 22 23 24 25 26 27 28 29 30 31 32 33 34 35 36 37 38 39 40 41 42 43 44 45 46 47 48 49 50

000
ASUS43 KJKL 251810
RWRJKL

EAST KENTUCKY HOURLY WEATHER ROUNDUP
NATIONAL WEATHER SERVICE JACKSON KY
200 PM EDT SAT MAR 25 2017

NOTE: "FAIR" INDICATES FEW OR NO CLOUDS BELOW 12,000 FEET WITH
NO SIGNIFICANT WEATHER AND/OR OBSTRUCTIONS TO VISIBILITY.

* THESE REPORTS ARE NOT UNDER NWS QUALITY CONTROL AND MAY NOT
  REPORT WEATHER SUCH AS PRECIPITATION AND FOG.

KYZ079-080-083-085-087-088-110-112-115-119-120-251900
...EASTERN KENTUCKY...

CITY           SKY/WX    TMP DP  RH WIND       PRES   REMARKS
JACKSON          N/A     75  47  36 VRB3      30.15F
6HR MIN TEMP:  60; 6HR MAX TEMP:  77;

LONDON           N/A     72  47  40 SE12G20   30.14F
6HR MIN TEMP:  58; 6HR MAX TEMP:  72;

SOMERSET*        N/A     70  48  46 S13G20    30.13F
MONTICELLO*      N/A     72  53  51 SE12      30.14F
6HR MIN TEMP:  61; 6HR MAX TEMP:  72;

WILLIAMSBURG*    N/A     72  50  46 SE16G26   30.13F
MIDDLESBORO*     N/A     71  50  46 S15       30.17F
6HR MIN TEMP:  48; 6HR MAX TEMP:  73;

HARLAN APT*      N/A     72  43  35 NE5       30.18F
PIKE CO APT*     N/A     75  48  37 CALM      30.15F
BIG SANDY APT* MOCLDY    76  48  37 SW5       30.15F
6HR MIN TEMP:  61; 6HR MAX TEMP:  76;

MOREHEAD APT*    N/A     73  48  40 SW7G15    30.16F
ASHLAND*         N/A     64  52  63 W6        30.13F
$$

KYZ035-036-041-042-044-050-067-078-099-251900
...CENTRAL KENTUCKY...

CITY           SKY/WX    TMP DP  RH WIND       PRES   REMARKS
MT STERLING*     N/A     73  50  43 SW6       30.15F
FLEMING/MASON*   N/A     71  51  49 S6        30.15F
DANVILLE*        N/A     72  50  46 S14G20    30.12F
LEXINGTON        N/A     76  49  38 S15       30.11F
6HR MIN TEMP:  57; 6HR MAX TEMP:  76;

FRANKFORT        N/A     76  48  37 SE17G25   30.07F
6HR MIN TEMP:  57; 6HR MAX TEMP:  77;

LOUISVILLE     CLOUDY    77  47  34 S22G30    30.04F
6HR MIN TEMP:  58; 6HR MAX TEMP:  79;

LEBANON*         N/A     73  48  40 S16G28    30.09S
GLASGOW*         N/A     73  49  43 S14G24    30.07S
BOWLING GREEN    N/A     75  51  43 S24G31    30.04F
6HR MIN TEMP:  65; 6HR MAX TEMP:  76;

$$

KYZ091>093-OHZ055-061-077-WVZ005-015-034-035-042-251900
...SOUTHERN OHIO/WEST VIRGINIA...

CITY           SKY/WX    TMP DP  RH WIND       PRES   REMARKS
COVINGTON      PTSUNNY   74  52  46 S15       30.08F
COLUMBUS       CLOUDY    72  51  47 SW9       30.13F
DAYTON         CLOUDY    69  50  50 SW14G22   30.10S
WILMINGTON       N/A     69  51  52 S14       30.11F
HUNTINGTON     CLOUDY    73  48  41 CALM      30.15F
CHARLESTON     CLOUDY    75  47  36 NW5       30.16F
PINEVILLE*     PTSUNNY   75  38  26 MISG      30.22F
BECKLEY        PTSUNNY   70  45  40 CALM      30.21F
BLUEFIELD        N/A     67  43  41 VRB6      30.23F
LOGAN CO APT*  MOCLDY    75  48  38 CALM      30.17F
$$

VAZ002-007-008-TNZ017-027-036-066-071-251900
...SOUTHWEST VIRGINIA/EAST TENNESSEE...

CITY           SKY/WX    TMP DP  RH WIND       PRES   REMARKS
WISE*            N/A     70  43  37 S7        30.23F
JONESVILLE*      N/A     73  46  38 S7        30.21F
ABINGDON*        N/A     72  47  40 W6        30.22F
BRISTOL        PTSUNNY   72  48  42 SW7       30.20F
MORRISTOWN*    CLEAR     72  48  43 VRB5G13   30.18F
SEVIERVILLE*   MOCLDY    73  46  38 VRB7      30.16F
KNOXVILLE      PTSUNNY   72  48  42 S14G22    30.16F
LAFOLLETTE*    PTCLDY    72  50  46 S17G24    30.19F
OAK RIDGE        N/A     73  48  41 S10G20    30.17F
CROSSVILLE       N/A     67  50  54 S8G22     30.16F
NASHVILLE      PTSUNNY   74  53  48 S20G28    30.06F
$$

...KEY TO REMARKS...
VSB - VISIBILITY IN MILES
WCI - WIND CHILL INDEX
HX  - HEAT INDEX

$$



USA.gov is the U.S. government's official web portal to all federal, state and local government web resources and services.